Location: Sebastopol
(38.4021°N, 122.8239°W)
Time: 15:39:42
(UTC+00:00)

Cosmos 614 Rocket - Pass Details

Date: 29 October 2020
Orbit: 734 x 763 km, 74.1° (Epoch: 30 November)

Event Time Altitude Azimuth Distance (km) Brightness Sun altitude
Rises 13:11:03 0° 201° (SSW) 3,189 7.0 -17.0°
Reaches altitude 10° 13:13:24 10° 203° (SSW) 2,264 6.2 -16.5°
Maximum altitude 13:18:32 74° 289° (WNW) 777 3.8 -15.5°
Drops below altitude 10° 13:23:39 10° 15° (NNE) 2,259 6.5 -14.5°
Sets 13:26:01 0° 17° (NNE) 3,182 7.3 -14.1°
